Regional Weather Roundup
Issued by NWS Charleston, SC

Current Version | Previous Version | Graphics & Text | Print | Product List | Glossary On
Versions: 1 2 3 4 5 6 7 8 9 10 11 12 13 14 15 16 17 18 19 20 21 22 23 24 25 26 27 28 29 30 31 32 33 34 35 36 37 38 39 40 41 42 43 44 45 46 47 48 49 50
000 ASUS42 KCHS 270812 RWRCHS REGIONAL WEATHER ROUNDUP NATIONAL WEATHER SERVICE CHARLESTON SC 400 AM EDT WED MAY 27 2015 NOTE: "FAIR" INDICATES FEW OR NO CLOUDS BELOW 12,000 FEET WITH NO SIGNIFICANT WEATHER AND/OR OBSTRUCTIONS TO VISIBILITY. NOT ALL STATIONS ARE QUALITY CONTROLLED BY THE NATIONAL WEATHER SERVICE. USE DATA WITH CAUTION...ESPECIALLY DEWPOINT OBSERVATIONS. SCZ027-030-031-034>040-042>050-270900- ...SOUTHEAST SOUTH CAROLINA... CITY SKY/WX TMP DP RH WIND PRES REMARKS N CHARLESTON CLOUDY 74 70 87 S8 30.18F WATERFRONT PAR N/A 77 72 84 S7 30.17F MOUNT PLEASANT FAIR 73 72 94 SE6 30.19F JOHNS ISLAND CLOUDY 75 72 88 SE6 30.19F PINOPOLIS N/A 75 72 88 VRB2 30.11F MONCKS CORNER NOT AVBL SUMMERVILLE FAIR 72 72 100 SE3 30.18F BEAUFORT MCAS CLOUDY 77 71 82 S5 30.18F BEAUFORT ARPT FAIR 73 72 94 CALM 30.17F HILTON HEAD IS PTCLDY 75 72 88 SE5 30.19F WALTERBORO PTSUNNY 68 68 100 CALM 30.19S ALLENDALE PTSUNNY 70 68 94 CALM 30.17F ...SOUTHERN MIDLANDS AND PEE DEE... CITY SKY/WX TMP DP RH WIND PRES REMARKS GEORGETOWN NOT AVBL KINGSTREE NOT AVBL ORANGEBURG MOCLDY 68 66 93 SE3 30.18F BARNWELL FAIR 70 70 100 CALM 30.19R AIKEN FAIR 64 63 94 CALM 30.23R MANNING NOT AVBL COLUMBIA MOCLDY 70 65 84 CALM 30.18S SUMTER MOCLDY 70 66 88 W5 30.17S FLORENCE MOCLDY 72 70 93 SE6 30.18F MYRTLE BEACH NOT AVBL N MYRTLE BEACH NOT AVBL $$ GAZ063-065-086>088-099>101-113>116-118-119-134>141-150-270900- ...SOUTHEAST GEORGIA... CITY SKY/WX TMP DP RH WIND PRES REMARKS SAVANNAH ARPT CLOUDY 74 69 85 SE8 30.16F HUNTER AAF MOCLDY 74 73 97 SE3 30.14F FORT STEWART NOT AVBL STATESBORO MOCLDY 69 32 25 CALM 30.18S SYLVANIA MOSUNNY 70 69 98 CALM 30.18F CLAXTON FAIR 68 68 100 CALM 30.18S ...CSRA...CENTRAL AND FAR SOUTHEAST GEORGIA... CITY SKY/WX TMP DP RH WIND PRES REMARKS THOMSON CLOUDY 69 69 100 CALM 30.24S AUGUSTA-BUSH CLOUDY 68 67 96 CALM 30.19R AUGUSTA-DANIEL CLOUDY 70 67 90 CALM 30.20S SWAINSBORO CLOUDY N/A N/A N/A S3 30.19F VIDALIA MOCLDY 70 68 94 CALM 30.18F EASTMAN CLOUDY 69 69 100 CALM 30.20F HAZLEHURST FAIR 70 70 100 CALM 30.17S ALMA MOCLDY 69 67 93 E3 30.17F WAYCROSS MOCLDY 70 69 98 CALM 30.15F JESUP FAIR 72 70 94 CALM 30.16F BAXLEY MOCLDY 70 70 100 CALM 30.17F BRUNSWICK MOCLDY 77 68 73 SE6 30.16F SAINT SIMONS NOT AVBL $$ SCZ027-028-034-036>038-045-046-048>050-GAZ119-141-270900- ...LAKE AND SUPPLEMENTAL COASTAL OBSERVATIONS... STATION/POSITION TIME TEMP WIND PRES WAVE SWELL AIR SEA DIR/SP/G HT/PER HT/PER/DIR (UTC) (F) (DEG/KT/KT) (MB) (FT/S) (FT/S/D) UPR LAKE MARION NOT AVBL WINYAH BAY NOT AVBL LAKE MURRAY 0700 69 80/ 2/ 6 1021.3F ACE BASIN NERRS NOT AVBL FORT PULASKI 0700 78 160/ 6/ 9 1022.8 SAPELO ISLAND 0700 77 150/ 7 1022.0F $$ ANZ835-935-AMZ111-154-330-350-352-354-370-450-454-472-270900- ...C-MAN AND BUOY OBSERVATIONS... STATION/POSITION TIME TEMP WIND PRES WAVE SWELL AIR SEA DIR/SP/G HT/PER HT/PER/DIR (UTC) (F) (DEG/KT/KT) (MB) (FT/S) (FT/S/D) BUOY 41004 0750 78 76 160/ 10/ 10 1022.4F 3/ 7 3/ 7 BUOY 41008 0750 77 77 150/ 12/ 14 1021.5F 3/ 7 2/100/ 7 FOLLY BEACH CMAN 0800 76 180/ 8/ 9 1022.4F CAPERS NEARSHORE 0708 76 200/ 6/ 10 1023.0F FRIPP NEARSHORE 0700 76 170/ 8/ 10 1022.0F STATION/POSITION TIME TEMP WIND PRES WAVE SWELL AIR SEA DIR/SP/G HT/PER HT/PER/DIR (UTC) (F) (DEG/KT/KT) (MB) (FT/S) (FT/S/D) 5E ST. MARYS GA 0721 79 N/A 3/ 7 FRYING PAN BUOY 0750 77 74 190/ 8/ 12 1024.1F 3/ 7 3/110/ 7 BUOY 41025 0750 74 78 190/ 12/ 16 1024.9F 3/ 5 2/110/ 7 CAPE LOOKOUT NC 0800 73 200/ 5/ 6 1024.1F BUOY 41002 0750 72 74 80/ 6/ 8 1025.2F 4/ 7 3/120/ 7 BUOY 41010 0720 78 81 90/ 10/ 14 1022.3F ST AUGUSTINE FL 0800 77 78 110/ 14/ 15 1021.6F $$

USA.gov is the U.S. government's official web portal to all federal, state and local government web resources and services.